Lewiston, WA

10:11 AM PDT on July 22, 2017 (GMT -0700)
Lewiston-Nez Perce County

Weather History for KLWS - June, 2014

Change the Weather History Date:

Tuesday, June 17, 2014

  Actual Average Record
Temperature  
Mean Temperature 52 °F 66 °F  
Max Temperature 54 °F 79 °F 104 °F (1916)
Min Temperature 50 °F 54 °F 44 °F (1949)
Degree Days  
Heating Degree Days 13 2  
Month to date heating degree days 36 51  
Since 1 June heating degree days 36 51  
Since 1 July heating degree days 5325 5148  
Cooling Degree Days 0 3  
Month to date cooling degree days 45 39  
Year to date cooling degree days 73 71  
Since 1 June cooling degree days 45 39  
Growing Degree Days 2 (Base 50)    
Moisture  
Dew Point 41 °F    
Average Humidity 65    
Maximum Humidity 80    
Minimum Humidity 50    
Precipitation  
Precipitation 0.23 in 0.04 in 0.61 in (1937)
Month to date precipitation 0.56 0.79  
Year to date precipitation 5.85 6.73  
Snow  
Snow 0.00 in 0.00 in T in (1927)
Month to date snowfall 0.0 0.0  
Since 1 June snowfall 0.0 0.0  
Since 1 July snowfall 16.5 10.5  
Snow Depth 0.00 in    
Sea Level Pressure  
Sea Level Pressure 29.97 in    
Wind  
Wind Speed 4 mph (SW)    
Max Wind Speed 12 mph    
Max Gust Speed 14 mph    
Visibility 10 miles    
Events Rain    
T = Trace of Precipitation, MM = Missing Value Source: NWS Daily Summary

Daily Weather History Graph

Daily Weather History Graph

Search for Another Location

Airport or City:

Trip Planner

Search our weather history database for the weather conditions in past years. The results will help you decide how hot, cold, wet, or windy it might be!

Date:

Astronomy

Jun. 17, 2014 Rise Set
Actual Time 4:55 AM PDT 8:43 PM PDT
Civil Twilight 4:16 AM PDT 9:22 PM PDT
Nautical Twilight 3:23 AM PDT 10:15 PM PDT
Astronomical Twilight 2:07 AM PDT 11:30 PM PDT
Moon 11:55 PM PDT (6/17) 10:31 AM PDT (6/17)
Length of Visible Light 17h 05m
Length of Day
15h 47m
Waning Gibbous, 72% of the Moon is Illuminated
Jun 17
Waning Gibbous
Jun 19
Last Quarter
Jun 27
New
Jul 5
First Quarter
Jul 12
Full

Hourly Weather History & Observations

Time (PDT) Temp. Dew Point Humidity Pressure Visibility Wind Dir Wind Speed Gust Speed Precip Events Conditions
12:56 AM 53.1 °F 36.0 °F 52% 29.88 in 10.0 mi WNW 3.5 mph - N/A   Overcast
1:56 AM 52.0 °F 36.0 °F 54% 29.88 in 10.0 mi West 3.5 mph - N/A   Overcast
2:56 AM 52.0 °F 35.1 °F 53% 29.90 in 10.0 mi NW 4.6 mph - N/A   Overcast
3:56 AM 51.1 °F 36.0 °F 56% 29.91 in 10.0 mi West 5.8 mph - N/A   Overcast
4:56 AM 50.0 °F 36.0 °F 59% 29.91 in 10.0 mi SW 6.9 mph - N/A   Partly Cloudy
5:56 AM 50.0 °F 37.0 °F 61% 29.93 in 10.0 mi WSW 3.5 mph - N/A   Mostly Cloudy
6:56 AM 52.0 °F 37.0 °F 57% 29.94 in 10.0 mi West 4.6 mph - N/A   Overcast
7:56 AM 52.0 °F 37.9 °F 59% 29.95 in 10.0 mi NW 4.6 mph - N/A   Overcast
8:56 AM 53.1 °F 37.0 °F 55% 29.95 in 10.0 mi Calm Calm - N/A   Overcast
9:56 AM 53.1 °F 37.9 °F 57% 29.96 in 10.0 mi SSW 5.8 mph - 0.00 in Rain Light Rain
10:56 AM 52.0 °F 42.1 °F 69% 29.97 in 9.0 mi West 4.6 mph - 0.02 in Rain Light Rain
11:56 AM 53.1 °F 42.1 °F 66% 29.98 in 10.0 mi Calm Calm - 0.01 in Rain Light Rain
12:56 PM 53.1 °F 44.1 °F 71% 29.98 in 8.0 mi Calm Calm - 0.02 in Rain Light Rain
1:56 PM 53.1 °F 45.0 °F 74% 29.99 in 10.0 mi Calm Calm - 0.02 in Rain Light Rain
2:56 PM 53.1 °F 44.1 °F 71% 29.99 in 10.0 mi SSE 6.9 mph - 0.01 in Rain Light Rain
3:56 PM 53.1 °F 45.0 °F 74% 30.00 in 9.0 mi South 5.8 mph - 0.02 in Rain Light Rain
4:56 PM 53.1 °F 45.0 °F 74% 30.01 in 8.0 mi SE 5.8 mph - 0.03 in Rain Light Rain
5:56 PM 53.1 °F 46.0 °F 77% 30.01 in 10.0 mi SE 3.5 mph - 0.03 in Rain Light Rain
6:56 PM 53.1 °F 45.0 °F 74% 30.01 in 10.0 mi SSE 5.8 mph - 0.00 in   Overcast
7:56 PM 53.1 °F 44.1 °F 71% 30.00 in 10.0 mi SSE 10.4 mph - N/A   Overcast
8:56 PM 52.0 °F 43.0 °F 71% 30.00 in 10.0 mi South 9.2 mph - N/A   Overcast
9:56 PM 52.0 °F 43.0 °F 71% 30.01 in 10.0 mi South 5.8 mph - 0.00 in Rain Light Rain
10:56 PM 51.8 °F 44.6 °F 76% 29.99 in 10.0 mi Calm Calm - N/A Rain Light Rain
11:56 PM 50.0 °F 45.0 °F 83% 30.00 in 10.0 mi NNE 3.5 mph - 0.03 in Rain Light Rain